Weather History for Ludington, MI

Change the Weather History Date:

Monday, October 28, 2013

  Actual Average Record
Temperature  
Mean Temperature 44 °F -  
Max Temperature 50 °F 55 °F 72 °F (1989)
Min Temperature 36 °F 39 °F 25 °F (1976)
Degree Days  
Heating Degree Days 22    
Moisture  
Dew Point 31 °F    
Average Humidity 62    
Maximum Humidity 75    
Minimum Humidity 49    
Precipitation  
Precipitation 0.00 in - - ()
Sea Level Pressure  
Sea Level Pressure 30.30 in    
Wind  
Wind Speed 7 mph (NE)    
Max Wind Speed 12 mph    
Max Gust Speed 18 mph    
Visibility 10 miles    
Events      
Averages and records for this station are not official NWS values.
T = Trace of Precipitation, MM = Missing Value Source: NWS Daily Summary

Daily Weather History Graph

Daily Weather History Graph

Search for Another Location

Airport:

Trip Planner

Search our weather history database for the weather conditions in past years. The results will help you decide how hot, cold, wet, or windy it might be!

Date:

Astronomy

Oct. 28, 2013 Rise Set
Actual Time 8:17 AM EDT 6:41 PM EDT
Civil Twilight 7:47 AM EDT 7:10 PM EDT
Nautical Twilight 7:13 AM EDT 7:44 PM EDT
Astronomical Twilight 6:39 AM EDT 8:18 PM EDT
Moon 1:57 AM EDT (10/28) 3:33 PM EDT (10/28)
Length of Visible Light 11h 23m
Length of Day
10h 23m
Waning Crescent, 34% of the Moon is Illuminated
Oct 28
Waning Crescent
Nov 3
New
Nov 10
First Quarter
Nov 17
Full
Nov 25
Last Quarter

Hourly Weather History & Observations

Time (EDT) Temp. Windchill Dew Point Humidity Pressure Visibility Wind Dir Wind Speed Gust Speed Precip Events Conditions
1:39 AM 49.8 °F - 38.3 °F 65% 30.03 in 10.0 mi North 4.6 mph - N/A   Scattered Clouds
1:55 AM 50.9 °F - 40.6 °F 68% 30.05 in 10.0 mi North 9.2 mph - N/A   Mostly Cloudy
2:14 AM 49.3 °F - 39.2 °F 68% 30.06 in 10.0 mi NNE 11.5 mph 16.1 mph N/A   Overcast
2:35 AM 48.4 °F - 37.6 °F 66% 30.07 in 10.0 mi NNE 10.4 mph 16.1 mph N/A   Overcast
2:55 AM 48.4 °F - 37.6 °F 66% 30.08 in 10.0 mi NNE 8.1 mph 18.4 mph N/A   Overcast
3:15 AM 47.3 °F - 36.7 °F 67% 30.10 in 10.0 mi NNE 6.9 mph - N/A   Overcast
3:35 AM 45.9 °F 41.7 °F 35.8 °F 68% 30.11 in 10.0 mi NNE 8.1 mph - N/A   Overcast
3:55 AM 45.9 °F 40.8 °F 36.0 °F 68% 30.12 in 10.0 mi NNE 10.4 mph - N/A   Overcast
4:15 AM 45.9 °F 42.9 °F 36.5 °F 70% 30.12 in 10.0 mi NE 5.8 mph - N/A   Overcast
4:35 AM 45.0 °F 41.2 °F 36.0 °F 71% 30.12 in 10.0 mi NE 6.9 mph - N/A   Overcast
4:55 AM 44.6 °F 40.7 °F 35.4 °F 70% 30.13 in 10.0 mi NE 6.9 mph 18.4 mph N/A   Overcast
5:15 AM 44.1 °F 41.5 °F 34.7 °F 70% 30.15 in 10.0 mi NNE 4.6 mph - N/A   Overcast
5:35 AM 43.9 °F 39.9 °F 34.5 °F 70% 30.16 in 10.0 mi NE 6.9 mph - N/A   Overcast
5:55 AM 43.3 °F 40.7 °F 33.8 °F 69% 30.17 in 10.0 mi NNE 4.6 mph - N/A   Overcast
6:15 AM 43.3 °F 38.1 °F 33.8 °F 69% 30.18 in 10.0 mi NNE 9.2 mph - N/A   Overcast
6:35 AM 42.1 °F 36.1 °F 32.7 °F 69% 30.20 in 10.0 mi NNE 10.4 mph - N/A   Overcast
6:55 AM 41.0 °F 35.2 °F 32.5 °F 72% 30.21 in 10.0 mi NNE 9.2 mph - N/A   Mostly Cloudy
7:15 AM 41.0 °F 35.8 °F 33.1 °F 73% 30.22 in 10.0 mi NNE 8.1 mph - N/A   Scattered Clouds
7:35 AM 41.0 °F 35.2 °F 32.9 °F 73% 30.23 in 10.0 mi NNE 9.2 mph 16.1 mph N/A   Mostly Cloudy
7:55 AM 41.0 °F 35.2 °F 32.0 °F 70% 30.24 in 10.0 mi NNE 9.2 mph - N/A   Mostly Cloudy
8:15 AM 41.0 °F 35.2 °F 32.2 °F 71% 30.26 in 10.0 mi NE 9.2 mph - N/A   Scattered Clouds
8:35 AM 38.5 °F 34.1 °F 31.1 °F 75% 30.27 in 10.0 mi NNE 5.8 mph - N/A   Clear
8:55 AM 38.3 °F 33.9 °F 30.9 °F 75% 30.28 in 10.0 mi NNE 5.8 mph - N/A   Clear
9:15 AM 40.6 °F 37.5 °F 32.2 °F 72% 30.29 in 10.0 mi NNE 4.6 mph - N/A   Clear
9:35 AM 41.0 °F 35.8 °F 32.0 °F 70% 30.30 in 10.0 mi NE 8.1 mph - N/A   Clear
9:55 AM 41.0 °F 37.1 °F 31.3 °F 68% 30.31 in 10.0 mi NE 5.8 mph - N/A   Clear
10:15 AM 41.9 °F 36.9 °F 30.9 °F 65% 30.32 in 10.0 mi NE 8.1 mph 16.1 mph N/A   Clear
10:35 AM 42.1 °F 36.1 °F 28.4 °F 58% 30.33 in 10.0 mi NE 10.4 mph - N/A   Clear
10:55 AM 43.3 °F 37.7 °F 29.3 °F 58% 30.34 in 10.0 mi ENE 10.4 mph 17.3 mph N/A   Clear
11:15 AM 43.3 °F 37.7 °F 28.6 °F 56% 30.34 in 10.0 mi ENE 10.4 mph - N/A   Clear
11:35 AM 43.3 °F 37.7 °F 28.2 °F 55% 30.35 in 10.0 mi NE 10.4 mph 17.3 mph N/A   Scattered Clouds
11:55 AM 43.5 °F 38.3 °F 28.9 °F 56% 30.36 in 10.0 mi ENE 9.2 mph - N/A   Clear
12:15 PM 43.3 °F 37.7 °F 29.7 °F 59% 30.37 in 10.0 mi East 10.4 mph - N/A   Scattered Clouds
12:35 PM 43.5 °F 40.9 °F 28.9 °F 56% 30.37 in 10.0 mi East 4.6 mph - N/A   Clear
12:55 PM 44.6 °F 40.7 °F 29.7 °F 56% 30.37 in 10.0 mi ENE 6.9 mph - N/A   Scattered Clouds
1:15 PM 45.7 °F 42.7 °F 28.4 °F 51% 30.37 in 10.0 mi ESE 5.8 mph - N/A   Mostly Cloudy
1:35 PM 47.8 °F - 29.7 °F 49% 30.37 in 10.0 mi NNE 4.6 mph - N/A   Mostly Cloudy
1:55 PM 45.0 °F 41.2 °F 27.9 °F 51% 30.37 in 10.0 mi East 6.9 mph - N/A   Overcast
2:15 PM 45.0 °F 43.5 °F 28.0 °F 52% 30.36 in 10.0 mi ESE 3.5 mph - N/A   Overcast
2:35 PM 44.6 °F 41.4 °F 28.2 °F 53% 30.36 in 10.0 mi NNE 5.8 mph - N/A   Overcast
2:55 PM 45.3 °F 44.0 °F 28.9 °F 53% 30.36 in 10.0 mi East 3.5 mph - N/A   Overcast
3:15 PM 45.5 °F 43.2 °F 28.4 °F 51% 30.35 in 10.0 mi NE 4.6 mph - N/A   Overcast
3:35 PM 45.9 °F 43.6 °F 28.9 °F 52% 30.35 in 10.0 mi NNE 4.6 mph - N/A   Overcast
3:55 PM 45.9 °F 42.3 °F 28.8 °F 51% 30.35 in 10.0 mi NE 6.9 mph - N/A   Overcast
4:15 PM 45.1 °F 41.4 °F 28.2 °F 52% 30.35 in 10.0 mi NE 6.9 mph - N/A   Overcast
4:35 PM 45.9 °F 42.9 °F 28.8 °F 51% 30.35 in 10.0 mi NE 5.8 mph - N/A   Overcast
4:55 PM 45.5 °F 43.2 °F 28.4 °F 51% 30.35 in 10.0 mi NE 4.6 mph - N/A   Overcast
5:15 PM 44.8 °F 43.3 °F 27.9 °F 52% 30.36 in 10.0 mi NNE 3.5 mph - N/A   Overcast
5:35 PM 44.6 °F 41.4 °F 28.0 °F 52% 30.36 in 10.0 mi ENE 5.8 mph - N/A   Overcast
5:55 PM 44.6 °F 43.1 °F 28.2 °F 53% 30.36 in 10.0 mi NE 3.5 mph - N/A   Overcast
6:15 PM 43.9 °F 41.3 °F 28.0 °F 54% 30.36 in 10.0 mi NE 4.6 mph - N/A   Overcast
6:35 PM 43.3 °F 41.7 °F 28.4 °F 56% 30.37 in 10.0 mi NNE 3.5 mph - N/A   Overcast
6:55 PM 43.3 °F - 29.1 °F 57% 30.37 in 10.0 mi Calm Calm - N/A   Overcast
7:15 PM 42.8 °F - 28.9 °F 58% 30.37 in 10.0 mi Calm Calm - N/A   Overcast
7:35 PM 42.1 °F - 28.4 °F 58% 30.38 in 10.0 mi Calm Calm - N/A   Overcast
7:55 PM 42.1 °F - 29.5 °F 61% 30.39 in 10.0 mi Calm Calm - N/A   Overcast
8:15 PM 41.4 °F 39.4 °F 29.1 °F 62% 30.40 in 10.0 mi NNE 3.5 mph - N/A   Overcast
8:35 PM 41.0 °F 35.8 °F 26.6 °F 57% 30.40 in 10.0 mi NNE 8.1 mph - N/A   Overcast
8:55 PM 41.0 °F 35.8 °F 26.4 °F 56% 30.40 in 10.0 mi NE 8.1 mph - N/A   Overcast
9:15 PM 39.2 °F 34.2 °F 26.6 °F 61% 30.41 in 10.0 mi NNE 6.9 mph - N/A   Mostly Cloudy
9:35 PM 38.3 °F 34.8 °F 26.6 °F 63% 30.41 in 10.0 mi NE 4.6 mph - N/A   Overcast
9:55 PM 38.3 °F 34.8 °F 27.1 °F 64% 30.42 in 10.0 mi NE 4.6 mph - N/A   Overcast
10:15 PM 38.3 °F - 28.0 °F 67% 30.42 in 10.0 mi Calm Calm - N/A   Overcast
10:35 PM 38.3 °F 35.9 °F 28.2 °F 67% 30.42 in 10.0 mi NE 3.5 mph - N/A   Overcast
10:54 PM 38.3 °F 35.9 °F 28.4 °F 68% 30.42 in 10.0 mi NE 3.5 mph - N/A   Overcast
11:15 PM 38.3 °F 35.9 °F 28.9 °F 69% 30.42 in 10.0 mi ENE 3.5 mph - N/A   Overcast
11:35 PM 37.4 °F 34.9 °F 28.2 °F 69% 30.42 in 10.0 mi NE 3.5 mph - N/A   Overcast
11:54 PM 36.0 °F 33.3 °F 27.3 °F 71% 30.42 in 10.0 mi NE 3.5 mph - N/A   Overcast